Weather History for KLXN - February, 2014

Change the Weather History Date:

Monday, February 17, 2014

  Actual Average Record
Temperature  
Mean Temperature 46 °F -  
Max Temperature 57 °F 42 °F 64 °F (2002)
Min Temperature 34 °F 20 °F 0 °F (2006)
Degree Days  
Heating Degree Days 20    
Moisture  
Dew Point 25 °F    
Average Humidity 50    
Maximum Humidity 87    
Minimum Humidity 21    
Precipitation  
Precipitation 0.00 in - - ()
Sea Level Pressure  
Sea Level Pressure 29.91 in    
Wind  
Wind Speed 13 mph (West)    
Max Wind Speed 29 mph    
Max Gust Speed 40 mph    
Visibility 10 miles    
Events      
Averages and records for this station are not official NWS values.
T = Trace of Precipitation, MM = Missing Value Source: NWS Daily Summary

Daily Weather History Graph

Daily Weather History Graph

Search for Another Location

Airport or City:

Trip Planner

Search our weather history database for the weather conditions in past years. The results will help you decide how hot, cold, wet, or windy it might be!

Date:

Astronomy

Feb. 17, 2014 Rise Set
Actual Time 7:30 AM CST 6:16 PM CST
Civil Twilight 7:02 AM CST 6:44 PM CST
Nautical Twilight 6:30 AM CST 7:16 PM CST
Astronomical Twilight 5:58 AM CST 7:48 PM CST
Moon 9:13 PM CST (2/17) 8:30 AM CST (2/17)
Length of Visible Light 11h 41m
Length of Day
10h 45m
Waning Gibbous, 93% of the Moon is Illuminated
Feb 17
Waning Gibbous
Feb 22
Last Quarter
Mar 1
New
Mar 8
First Quarter
Mar 16
Full

Hourly Weather History & Observations

Time (CST) Temp. Windchill Dew Point Humidity Pressure Visibility Wind Dir Wind Speed Gust Speed Precip Events Conditions
12:15 AM 42.6 °F 38.4 °F 33.8 °F 71% 29.73 in 10.0 mi SW 6.9 mph - N/A   Overcast
12:35 AM 42.8 °F 39.3 °F 34.7 °F 73% 29.73 in 10.0 mi WSW 5.8 mph - N/A   Overcast
12:55 AM 41.7 °F 38.0 °F 34.2 °F 75% 29.74 in 10.0 mi WSW 5.8 mph - N/A   Mostly Cloudy
1:15 AM 42.6 °F 38.4 °F 34.9 °F 74% 29.74 in 10.0 mi SW 6.9 mph - N/A   Mostly Cloudy
1:35 AM 44.2 °F 36.7 °F 36.0 °F 73% 29.78 in 10.0 mi NW 17.3 mph 24.2 mph N/A   Mostly Cloudy
1:55 AM 42.1 °F 31.5 °F 34.5 °F 75% 29.82 in 10.0 mi North 28.8 mph 40.3 mph N/A   Scattered Clouds
2:15 AM 41.4 °F 31.9 °F 32.9 °F 72% 29.84 in 10.0 mi NNW 21.9 mph 28.8 mph N/A   Mostly Cloudy
2:35 AM 41.2 °F 33.0 °F 32.9 °F 72% 29.87 in 10.0 mi NNW 16.1 mph 28.8 mph N/A   Light Drizzle
2:55 AM 40.5 °F 31.2 °F 32.7 °F 74% 29.89 in 10.0 mi NNW 19.6 mph 23.0 mph N/A   Overcast
3:15 AM 40.5 °F 31.5 °F 32.5 °F 73% 29.90 in 10.0 mi NW 18.4 mph 21.9 mph N/A   Overcast
3:35 AM 40.5 °F 32.5 °F 32.5 °F 73% 29.91 in 10.0 mi NW 15.0 mph 24.2 mph N/A   Overcast
3:55 AM 40.3 °F 33.0 °F 32.4 °F 73% 29.91 in 10.0 mi NW 12.7 mph 23.0 mph N/A   Overcast
4:15 AM 39.2 °F 32.0 °F 32.0 °F 75% 29.91 in 10.0 mi WNW 11.5 mph - N/A   Overcast
4:35 AM 37.4 °F 29.8 °F 31.8 °F 80% 29.92 in 10.0 mi WNW 11.5 mph - N/A   Scattered Clouds
4:55 AM 36.3 °F 28.4 °F 31.3 °F 82% 29.92 in 10.0 mi WNW 11.5 mph - N/A   Clear
5:15 AM 34.5 °F 26.2 °F 30.7 °F 86% 29.95 in 10.0 mi WNW 11.5 mph - N/A   Clear
5:35 AM 34.0 °F 25.5 °F 30.4 °F 87% 29.96 in 10.0 mi WNW 11.5 mph - N/A   Clear
5:55 AM 35.2 °F 27.1 °F 31.6 °F 87% 29.96 in 10.0 mi West 11.5 mph - N/A   Clear
6:15 AM 35.8 °F 27.3 °F 31.5 °F 84% 29.96 in 10.0 mi West 12.7 mph - N/A   Clear
6:35 AM 35.6 °F 27.1 °F 30.9 °F 83% 29.97 in 10.0 mi West 12.7 mph - N/A   Clear
6:55 AM 35.1 °F 26.9 °F 30.0 °F 82% 29.97 in 10.0 mi West 11.5 mph - N/A   Clear
7:15 AM 34.9 °F 26.2 °F 29.3 °F 80% 29.98 in 10.0 mi WNW 12.7 mph - N/A   Clear
7:35 AM 34.5 °F 26.2 °F 28.4 °F 78% 29.99 in 10.0 mi WNW 11.5 mph - N/A   Clear
7:55 AM 34.0 °F 26.0 °F 27.9 °F 78% 29.99 in 10.0 mi WNW 10.4 mph - N/A   Clear
8:15 AM 35.2 °F 27.1 °F 27.7 °F 74% 29.99 in 10.0 mi WNW 11.5 mph - N/A   Clear
8:35 AM 37.8 °F 29.4 °F 27.5 °F 67% 30.00 in 10.0 mi WNW 13.8 mph - N/A   Clear
8:55 AM 39.4 °F 31.1 °F 27.5 °F 62% 30.01 in 10.0 mi WNW 15.0 mph - N/A   Clear
9:15 AM 41.2 °F 32.1 °F 27.0 °F 57% 30.02 in 10.0 mi WNW 19.6 mph - N/A   Clear
9:35 AM 41.9 °F 34.0 °F 27.7 °F 57% 30.02 in 10.0 mi WNW 16.1 mph - N/A   Clear
9:55 AM 43.2 °F 35.0 °F 28.6 °F 56% 30.02 in 10.0 mi WNW 18.4 mph 23.0 mph N/A   Clear
10:15 AM 44.8 °F 37.4 °F 28.0 °F 52% 30.01 in 10.0 mi NW 17.3 mph 24.2 mph N/A   Clear
10:35 AM 45.9 °F 38.5 °F 27.0 °F 48% 30.02 in 10.0 mi WNW 18.4 mph - N/A   Clear
10:55 AM 48.2 °F - 25.2 °F 41% 30.02 in 10.0 mi WNW 19.6 mph 23.0 mph N/A   Clear
11:15 AM 49.1 °F - 23.2 °F 36% 30.01 in 10.0 mi NW 18.4 mph 24.2 mph N/A   Clear
11:35 AM 50.2 °F - 21.2 °F 32% 30.01 in 10.0 mi WNW 15.0 mph 24.2 mph N/A   Clear
11:55 AM 51.3 °F - 18.7 °F 28% 30.01 in 10.0 mi NW 16.1 mph - N/A   Clear
12:15 PM 52.2 °F - 17.4 °F 25% 30.00 in 10.0 mi WNW 18.4 mph 26.5 mph N/A   Clear
12:35 PM 53.6 °F - 17.8 °F 24% 29.99 in 10.0 mi WNW 16.1 mph 19.6 mph N/A   Clear
12:55 PM 54.1 °F - 19.6 °F 26% 29.98 in 10.0 mi WNW 15.0 mph 21.9 mph N/A   Clear
1:15 PM 53.8 °F - 20.3 °F 27% 29.97 in 10.0 mi WNW 19.6 mph - N/A   Clear
1:35 PM 53.8 °F - 19.4 °F 26% 29.97 in 10.0 mi WNW 17.3 mph 23.0 mph N/A   Clear
1:55 PM 55.0 °F - 18.9 °F 24% 29.96 in 10.0 mi WNW 17.3 mph 23.0 mph N/A   Clear
2:15 PM 56.3 °F - 17.4 °F 22% 29.95 in 10.0 mi WNW 16.1 mph 21.9 mph N/A   Clear
2:35 PM 56.8 °F - 17.1 °F 21% 29.95 in 10.0 mi WNW 18.4 mph 25.3 mph N/A   Clear
2:55 PM 57.6 °F - 18.5 °F 22% 29.94 in 10.0 mi WNW 20.7 mph 27.6 mph N/A   Clear
3:15 PM 57.4 °F - 17.6 °F 21% 29.92 in 10.0 mi WNW 16.1 mph - N/A   Clear
3:35 PM 56.5 °F - 17.8 °F 22% 29.92 in 10.0 mi West 10.4 mph - N/A   Clear
3:55 PM 55.9 °F - 18.7 °F 23% 29.92 in 10.0 mi West 8.1 mph - N/A   Clear
4:15 PM 56.3 °F - 19.9 °F 24% 29.92 in 10.0 mi West 9.2 mph - N/A   Clear
4:35 PM 56.5 °F - 19.4 °F 24% 29.91 in 10.0 mi WSW 4.6 mph - N/A   Clear
4:55 PM 53.4 °F - 22.8 °F 30% 29.91 in 10.0 mi SW 6.9 mph - N/A   Clear
5:15 PM 54.5 °F - 23.0 °F 29% 29.90 in 10.0 mi SW 4.6 mph - N/A   Clear
5:35 PM 54.1 °F - 22.1 °F 29% 29.90 in 10.0 mi SW 8.1 mph - N/A   Clear
5:55 PM 51.3 °F - 21.2 °F 31% 29.89 in 10.0 mi SSW 6.9 mph - N/A   Clear
6:15 PM 48.4 °F - 20.8 °F 34% 29.89 in 10.0 mi SSW 6.9 mph - N/A   Clear
6:35 PM 45.9 °F 41.2 °F 21.2 °F 38% 29.88 in 10.0 mi SSW 9.2 mph - N/A   Clear
6:55 PM 46.6 °F - 20.8 °F 36% 29.87 in 10.0 mi SSW 8.1 mph - N/A   Clear
7:15 PM 46.4 °F 42.4 °F 21.0 °F 37% 29.86 in 10.0 mi SW 8.1 mph - N/A   Clear
7:35 PM 45.9 °F 41.7 °F 21.0 °F 37% 29.86 in 10.0 mi SSW 8.1 mph - N/A   Clear
7:55 PM 43.3 °F 38.1 °F 21.6 °F 42% 29.85 in 10.0 mi SSW 9.2 mph - N/A   Clear
8:15 PM 41.0 °F 35.8 °F 21.9 °F 47% 29.85 in 10.0 mi SSW 8.1 mph - N/A   Clear
8:35 PM 39.2 °F 33.6 °F 21.9 °F 50% 29.84 in 10.0 mi South 8.1 mph - N/A   Clear
8:55 PM 39.7 °F 36.5 °F 21.6 °F 48% 29.83 in 10.0 mi SSW 4.6 mph - N/A   Clear
9:15 PM 41.7 °F 39.8 °F 20.7 °F 43% 29.83 in 10.0 mi South 3.5 mph - N/A   Clear
9:35 PM 42.3 °F 37.9 °F 19.9 °F 41% 29.83 in 10.0 mi SSW 6.9 mph - N/A   Clear
9:55 PM 44.6 °F 39.7 °F 19.2 °F 36% 29.81 in 10.0 mi SSW 9.2 mph - N/A   Clear
10:15 PM 47.7 °F - 16.7 °F 29% 29.80 in 10.0 mi SSW 16.1 mph - N/A   Clear
10:35 PM 49.3 °F - 15.1 °F 26% 29.78 in 10.0 mi SSW 19.6 mph 27.6 mph N/A   Clear
10:55 PM 48.2 °F - 15.3 °F 27% 29.79 in 10.0 mi SW 18.4 mph 25.3 mph N/A   Clear
11:15 PM 47.3 °F - 15.4 °F 28% 29.78 in 10.0 mi SW 19.6 mph 24.2 mph N/A   Clear
11:35 PM 46.8 °F - 15.6 °F 29% 29.77 in 10.0 mi SW 15.0 mph - N/A   Clear
11:55 PM 45.5 °F 39.2 °F 15.8 °F 30% 29.77 in 10.0 mi SW 13.8 mph - N/A   Clear